STARLINK-33787, 63519

Orbit data source: Space-Track

STARLINK-33787, 63519 is a payload satellite owned by SpaceX/Seattle (US) in LEO that was launched on Mon, 07 Apr 2025 UTC via an FALCON 9 launch vehicle from the Air Force Western Test Range (AFWTR). Payload-class satellites include a variety of spacecraft equipped with specific instruments for various scientific and technological missions. These include communications satellites like Starlink; space stations such as the ISS; scientific satellites like the Hubble; Earth observation satellites from companies like Planet Labs, Umbra, and HawkEye 360; GPS; miniature CubeSats for education and research; and military/defense satellites.

Loading next visibility...
Identifier
63519, 2025-071AC
Orbit
LEO
Last TLE update
4 hours ago
Origin
Manufacturer
SpaceX/Seattle
Mission
Operational Commercial Communications
Bus & Motor
STARLINK V2MO, Unknown motor
Mass
575 kg wet, ~530 kg dry
Launch date (UTC)
2025-04-07 (1 month ago)
Launch vehicle
FALCON 9
Launch site
Air Force Western Test Range (AFWTR)
Object type
Payload
Rocket body
Debris
Shape & HBR
Box + 1 Pan, 29 m
Radar Cross Section
41.120 m², Large (>1 m²)

Expand to show TLE details & history

TLE from 4 hours ago
0 STARLINK-33787
1 63519U 25071AC  25129.25002315 -.01363772  00000-0 -23713-1 0  9994
2 63519  53.1598 116.8910 0001190  72.2565  77.2371 15.53187402  5740
Epoch: 2025-05-09T06:00Z
Definitive object data (Epoch: 2025-05-09T06:00:02Z)
Latitude
24.02519°
Longitude
-39.82205°
Altitude
408.118 km
Speed
7.669 km/s
True Right ascension
18h 29m 58s
True Declination
23° 53' 28"
Sunlit
Object was in full shadow at TLE epoch
Visualization TLE readout
Latitude
-51.89206°
Longitude
87.05621°
Altitude
427.401 km
Speed
7.654 km/s
Apparent Right ascension
04h 29m 52s
Apparent Declination
-47° 56' 34"
Sunlit
Object is in daylight
Visualization observer readout
Local Sidereal Time
17:48:38
Azimuth
126.128° SE
Elevation
-73.771°
Doppler factor
1
Orbital elements
Apogee altitude
408.493 km
Perigee altitude
406.878 km
Semi-major axis
6,785.823 km
Eccentricity
0.000119
Inclination
53.1598°
RAAN
116.891°
Arg. of periapsis
72.2565°
True anomaly
77.2504°
Mean anomaly
77.2371°
Eccentric anomaly
77.24375°
Mean motion
3.88275 °/min
BSTAR
-0.023713
Orbital period
92.72 mins
Loading maneuver chart data...
Loading SW <> Apogee altitude chart data...
Loading historical data...
Loading historical data...
Loading historical data...
Loading historical data...
Loading historical data...
Loading historical data...
Loading historical data...

STARLINK-33787 Visibility forecast

Observer location: undefined°, undefined°

Span
Click to sort rows by Start time (UTC) header in descending order
Start Az.
Max El. time (UTC)
Max El. Az.
Max El.
End time (UTC)
End Az.
6 mins2025-05-10 01:37:16.960Z217.639° SW2025-05-10 01:40:16.960Z129.713° SE41.62°2025-05-10 01:43:16.960Z56.317° ENE
4 mins2025-05-10 08:08:16.960Z334.087° NNW2025-05-10 08:10:16.960Z60.205° ENE34.405°2025-05-10 08:12:16.960Z105.968° ESE
|